Tracking 35036 objects as of 15-Aug-2026
HD Live streaming from Space Station
objects crossing your sky now

STARLINK-38173


10-day predictions
STARLINK-38173 is classified as:


NORAD ID: 100151
Int'l Code: 2026-171D
Launch date: July 25, 2026
Source: United States (US)
Launch site: AIR FORCE WESTERN TEST RANGE (AFWTR)
Your satellite tracking list
Your tracking list is empty




NASA's NSSDC Master Catalog

Two Line Element Set (TLE):
1 A0151U 26171D   26227.07221880  .00342270  00000-0  17071-2 0  9997
2 A0151  97.2837 258.9724 0001062 108.1096 252.0288 15.80960684  3249
Source of the keplerian elements: AFSPC